COSMOS 1252

Satellite information

Favourite Embed

Satellite Type and Status

PAYLOADIN ORBIT

Key statistics

Satellite COSMOS 1252 at a glance.

Uptime

16136

Days in orbit

Revolutions

≈ 12.5

Per day

Orbit

LEO

Low Earth Orbit

Inclination

74.0

Latest

Satellite identification and parameters

Extended collection of information and parameters for COSMOS 1252.

Object identification

Identified? True

Debris? False

Object name: COSMOS 1252

International designator: 1981-022C

Object number (NORAD): 12322

Object ID (CCSDS): 12322

Country: COMMONWEALTH OF INDEPENDENT STATES (CIS)

Current information (Y/N): Y

RCS size: MEDIUM

Orbital parameters

Period: 114.759 minutes

Inclination: 74.0292 deg

SMA: 7822.605 km

Apoapsis: 1471.474 km

Periapsis: 1417.465 km

RAAN: 316.7561 deg

Eccentricy: 0.0034521

Argument of periapsis: 122.0493 deg

Mean anomaly: 313.4618 deg

Mean motion: 12.54803403 rev/day

Mean motion (dot): 0.00000009 rev/day2

B* drag term: 0.00015271 1/REarth

Two-line elements (TLE)

Creation date: May 9, 2025, 2:46 a.m.

Reference frame: TEME

Reference center: EARTH

Epoch: May 8, 2025, 4:37 p.m. UTC

TLE line 0: 0 COSMOS 1252

TLE line 1: 1 12322U 81022C 25128.69298425 .00000009 00000-0 15271-3 0 9994

TLE line 2: 2 12322 74.0292 316.7561 0034521 122.0493 313.4618 12.54803403 23417

Live tracking on map

Real-time ground track for satellite COSMOS 1252.

In-orbit conjunctions

A list of the most updated potential collisions computed for object COSMOS 1252.

Target Orbit TCA Probability of collision Miss distance Type
DELTA 1 DEB SSO 2024-09-30 21:14:01 0.0002459494 239.0 (m) DEBRIS

Associated space launch

Military communications satellites

COSMOS 1252 was lifted into orbit during the mission ‘Kosmos-3M | Strela-1M 209-216’, on board a Kosmos-3M space rocket.

The launch took place on March 6, 1981, 11:31 a.m. from 132/2.

For more information about the launch, click the button.

Launch to space Kosmos-3M | Strela-1M 209-216
Kosmos-3M | Strela-1M 209-216

Agency: N/A

Status: Launch Successful

Launch date: March 6, 1981, 11:31 a.m. UTC

Rocket: Kosmos-3M

Launch pad: 132/2

Location: Plesetsk Cosmodrome, Russian Federation

...

Latest news about this satellite

There are no fresh news available about this satellite. Check back as we update our databases every day.


Newsletter sign-up

Weekly statistics, charts and insights to help you stay on top of the space industry.